Flag for Germany Weather past 2 weeks in Coburg, Bavaria, Germany

Now
44 °F

Overcast.


Feels Like: 39 °F
Forecast: 37 / 49 °F
Wind: 9 mph from West

Location: Bamberg

Current Time: Mar 30, 2015 at 9:14:23 AM

Latest Report: Mar 30, 2015 at 8:00 AM


Visibility: 44 mi

Pressure: 29.47 "Hg

Humidity: 78%

Dew point: 38 °F

Location of CoburgLocation

Historic Weather in Coburg — Graph

°F

Coburg temperature yesterday

Maximum temperature yesterday: 52 °F (at 11:00 PM)
Minimum temperature yesterday: 45 °F (at 12:00 AM)
Average temperature yesterday: 50 °F

Past Weeks' High & Low Weather Summary

 TemperatureHumidityPressure
High67 °F (Mar 25, 3:00 PM)95% (Mar 24, 7:00 AM)30.33 "Hg (Mar 24, 7:00 AM)
Low23 °F (Mar 21, 5:00 AM)19% (Mar 20, 4:00 PM)29.38 "Hg (Mar 29, 11:00 PM)
Average44 °F69%30.05 "Hg
* Reported Mar 15 7:00 AM — Mar 30 8:00 AM, Coburg, Weather by CustomWeather, © 2015

Note: Actual official high and low records may vary slightly from our data, if they occured in-between our weather recording intervals... More about our weather records

Advertising

Coburg weather history for previous 24 hours

 ConditionsComfort  
Time TempWeatherWind HumidityBarometerVisibility
8:00 AM
Mon, Mar 30
44 °FOvercast.9 mph78%29.47 "Hg43 mi
7:00 AM44 °FOvercast.6 mph87%29.47 "Hg43 mi
6:00 AM44 °FLight rain. Overcast.5 mph85%29.44 "Hg28 mi
4:00 AM45 °FOvercast.6 mph85%29.47 "Hg34 mi
3:00 AM46 °FLight rain. Overcast.7 mph80%29.47 "Hg28 mi
2:00 AM45 °FOvercast.8 mph75%29.44 "Hg43 mi
1:00 AM46 °FLight rain. Overcast.12 mph82%29.41 "Hg4 mi
12:00 AM51 °FLight rain. Overcast.8 mph83%29.38 "Hg9 mi
11:00 PM
Sun, Mar 29
52 °FOvercast.10 mph77%29.38 "Hg43 mi
10:00 PM51 °FOvercast.7 mph83%29.41 "Hg43 mi
9:00 PM50 °FLight freezing rain. Overcast.7 mph85%29.47 "Hg16 mi
8:00 PM49 °FLight freezing rain. Passing clouds.6 mph89%29.50 "Hg13 mi
7:00 PM50 °FLight rain. Overcast.6 mph85%29.55 "Hg9 mi
6:00 PM50 °FDrizzle. Overcast.6 mph83%29.58 "Hg22 mi
5:00 PM50 °FLight freezing rain. Overcast.6 mph85%29.62 "Hg12 mi
4:00 PM50 °FLight rain. Overcast.6 mph84%29.65 "Hg11 mi
3:00 PM51 °FLight freezing rain. Overcast.8 mph81%29.68 "Hg10 mi
2:00 PM51 °FLight rain. Overcast.8 mph79%29.70 "Hg25 mi
1:00 PM52 °FLight rain. Overcast.6 mph79%29.72 "Hg31 mi
12:00 PM51 °FLight rain. Low clouds.7 mph86%29.75 "Hg9 mi
11:00 AM51 °FOvercast.6 mph79%29.76 "Hg43 mi
10:00 AM51 °FOvercast.6 mph81%29.78 "Hg40 mi
9:00 AM51 °FPartly sunny.6 mph85%29.80 "Hg43 mi
Weather by CustomWeather, © 2015

See weather overviewHow to use our weather pages